Flag for U.S.A. Weather past 2 weeks in Lynchburg, Virginia, U.S.A.

Now
75 °F

Overcast.


Feels Like: 75 °F
Forecast: 67 / 77 °F
Wind: No wind

Location: Lynchburg Regional Airport

Current Time: Jul 24, 2014 at 3:08:11 AM

Latest Report: Jul 24, 2014 at 1:54 AM


Visibility: 10 mi

Pressure: 29.88 "Hg

Humidity: 82%

Dew point: 69 °F

Location of LynchburgLocation

Historic Weather in Lynchburg — Graph

°F

Lynchburg temperature yesterday

Maximum temperature yesterday: 93 °F (at 3:54 PM)
Minimum temperature yesterday: 68 °F (at 4:54 AM)
Average temperature yesterday: 81 °F

Past Weeks' High & Low Weather Summary

 TemperatureHumidityPressure
High93 °F (Jul 23, 3:54 PM)100% (Jul 9, 3:54 AM)30.24 "Hg (Jul 9, 3:54 AM)
Low57 °F (Jul 17, 5:54 AM)28% (Jul 17, 4:54 PM)29.76 "Hg (Jul 15, 3:54 PM)
Average74 °F76%30.06 "Hg
* Reported Jul 9 1:54 AM — Jul 24 1:54 AM, Lynchburg, Weather by CustomWeather, © 2014

Note: Actual official high and low records may vary slightly from our data, if they occured in-between our weather recording intervals... More about our weather records

Advertising

Lynchburg weather history for previous 24 hours

 ConditionsComfort  
Time TempWeatherWind HumidityBarometerVisibility
1:54 AM
Jul 24
75 °FOvercast.No wind82%29.88 "Hg10 mi
12:54 AM75 °FPassing clouds.No wind82%29.89 "Hg10 mi
11:54 PM
Jul 23
75 °FPassing clouds.3 mph79%29.89 "Hg10 mi
10:54 PM76 °FPassing clouds.No wind77%29.89 "Hg10 mi
9:54 PM79 °FClear.3 mph72%29.89 "Hg10 mi
8:54 PM80 °FScattered clouds.8 mph69%29.89 "Hg10 mi
7:54 PM85 °FPartly sunny.3 mph59%29.88 "Hg10 mi
6:54 PM87 °FSunny.5 mph55%29.88 "Hg10 mi
5:54 PM89 °FPassing clouds.7 mph52%29.89 "Hg10 mi
4:54 PM92 °FPassing clouds.9 mph43%29.89 "Hg10 mi
3:54 PM93 °FSunny.9 mph40%29.91 "Hg10 mi
2:54 PM92 °FSunny.6 mph43%29.94 "Hg10 mi
1:54 PM90 °FPassing clouds.No wind45%29.96 "Hg10 mi
12:54 PM89 °FSunny.6 mph52%29.98 "Hg10 mi
11:54 AM87 °FSunny.7 mph55%30.00 "Hg10 mi
10:54 AM83 °FScattered clouds.5 mph63%30.02 "Hg10 mi
9:54 AM80 °FSunny.6 mph71%30.04 "Hg10 mi
8:54 AM75 °FSunny.5 mph88%30.05 "Hg10 mi
7:54 AM70 °FSunny.5 mph97%30.06 "Hg8 mi
6:54 AM68 °FFog.3 mph100%30.05 "Hg6 mi
5:54 AM68 °FFog.No wind100%30.03 "Hg6 mi
4:54 AM68 °FClear.3 mph96%30.05 "Hg7 mi
Weather by CustomWeather, © 2014

See weather overviewHow to use our weather pages